テンペル第2彗星

10P/Tempel 2 (2005)

English version
Home page
Updated on May 5, 2012

---------------------------------------------------------------------

・ プロフィール

・ 写真集

・ 軌道要素

Epoch 2005 Jan. 30.0 TT = JDT 2453400.5
T 2005 Feb. 15.03735 TT                                 MPC
q   1.4268590            (2000.0)            P               Q
n   0.18313387     Peri.  195.55823     +0.68198254     +0.70781876
a   3.0710739      Node   117.84908     -0.64684380     +0.70121426
e   0.5353876      Incl.   12.01771     -0.34131058     +0.08538833
P   5.38
From 2862 observations 1972 Feb. 10-2012 Jan. 22, mean residual 0".7.
     Nongravitational parameters A1 = +0.03, A2 = +0.0007.

・ 星図

・ 光度変化

        H = 13.6  G = 0.15              [    ,-170]  (              〜2004年 8月29日)
        m1 =  4.6 + 5 logΔ + 35 log r  [-170,   0]  (2004年 8月29日〜2005年 2月15日)
        m1 =  7.2 + 5 logΔ + 18 log r  [   0, 425]  (2005年 2月15日〜2006年 4月16日)
        H = 13.6  G = 0.15              [ 425,    ]  (2006年 4月16日〜              )

---------------------------------------------------------------------

軌道要素はM.P.E.C. 2012-J16に掲載されたものです。
星図は StellaNavigator Ver.2.0 for Windows (アストロアーツ編著 / アスキー出版局刊) で作成したものです。
光度グラフはComet for Windowsで作成したものです。

---------------------------------------------------------------------

Copyright(C) Seiichi Yoshida (comet@aerith.net). All rights reserved.